Location: Home
(42.5358°N, 72.7383°W)
Time: 19:22:00
(UTC-05:00)

A-11 Canister half - Pass Details

Date: 06 December 2021
Orbit: 1524 x 1684 km, 47.3° (Epoch: 23 January)

Event Time Altitude Azimuth Distance (km) Brightness Sun altitude
Rises 03:22:24 0° 272° (W) 4,938 - -40.4°
Reaches altitude 10° 03:25:38 10° 276° (W) 3,947 - -39.8°
Maximum altitude 03:35:47 67° 359° (N) 1,777 - -38.0°
Exits shadow 03:35:51 67° 1° (N) 1,777 9.1 -38.0°
Drops below altitude 10° 03:45:41 10° 81° (E) 3,864 11.8 -36.2°
Sets 03:48:49 0° 85° (E) 4,829 12.6 -35.6°
